Regional Weather Roundup
Issued by NWS Northern Indiana

Home | Current Version | Previous Version | Text Only | Print | Product List | Glossary On
Versions: 1 2 3 4 5 6 7 8 9 10 11 12 13 14 15 16 17 18 19 20 21 22 23 24 25 26 27 28 29 30 31 32 33 34 35 36 37 38 39 40 41 42 43 44 45 46 47 48 49 50
000
ASUS43 KIWX 230300
RWRIWX

KIWX WEATHER ROUNDUP
NATIONAL WEATHER SERVICE NORTHERN INDIANA
1000 PM EST WED NOV 22 2017

NOTE: "FAIR" INDICATES FEW OR NO CLOUDS BELOW 12,000 FEET WITH NO
SIGNIFICANT WEATHER AND/OR OBSTRUCTIONS TO VISIBILITY.

* THESE STATIONS ARE NOT UNDER NWS QUALITY CONTROL. THEY ALSO MAY NOT
  REPORT WEATHER SUCH AS PRECIPITATION OR FOG.

INZ001>027-230400-
NORTHERN INDIANA

CITY           SKY/WX    TMP DP  RH WIND       PRES   REMARKS
GARY*          MOCLDY    32  18  55 CALM      30.24F
MICHIGAN CITY* MOCLDY    30  21  69 SW5       30.22F WCI  25
LAPORTE*       CLOUDY    29  20  70 SW3       30.21F
KNOX*          CLOUDY    27  21  80 CALM      30.22F
SOUTH BEND     PTCLDY    28  22  78 S5        30.22F WCI  23
GOSHEN         PTCLDY    28  23  81 CALM      30.22F
MONTICELLO*    PTCLDY    27  24  89 CALM      30.24S
WARSAW*        PTCLDY    28  23  80 W3        30.23S
AUBURN*        PTCLDY    28  21  74 CALM      30.23F
FORT WAYNE     CLOUDY    30  25  81 CALM      30.24S
PERU/GRISSOM   PTCLDY    28  24  84 SW3       30.23S

$$
INZ028>050-230400-
CENTRAL INDIANA

CITY           SKY/WX    TMP DP  RH WIND       PRES   REMARKS
LAFAYETTE      PTCLDY    27  24  89 CALM      30.25R
KOKOMO*        MOCLDY    28  25  88 CALM      30.25S
MUNCIE*        CLOUDY    28  22  78 CALM      30.25R
INDIANAPOLIS   CLOUDY    31  23  72 E3        30.25S

$$
MIZ043>046-050>051-056>058-064>065-071>073-077>080-230400-
SOUTHWEST LOWER MICHIGAN

CITY           SKY/WX    TMP DP  RH WIND       PRES   REMARKS
BATTLE CREEK   CLOUDY    28  22  78 S5        30.20F WCI  23
BENTON HARBOR  CLOUDY    32  23  69 S7        30.19F WCI  26
COLDWATER*     PTCLDY    28  22  80 S5        30.20F WCI  22
HILLSDALE*     PTCLDY    27  19  74 S3        30.19F
HOLLAND        CLOUDY    32  24  72 S9        30.19F WCI  24
GRAND RAPIDS   CLOUDY    31  24  75 S9        30.18F WCI  23
KALAMAZOO      MOCLDY    29  22  75 SW5       30.20F WCI  24
STURGIS*       CLOUDY    27  22  81 CALM      30.20F
THREE RIVERS*  FAIR      31  25  79 CALM      30.21F

$$
OHZ001>008-015>018-024>025-230400-
NORTHWEST OHIO

CITY           SKY/WX    TMP DP  RH WIND       PRES   REMARKS
DEFIANCE       CLOUDY    26  21  81 CALM      30.25S
FINDLAY        CLOUDY    25  19  78 S5        30.24R WCI  19
TOLEDO EXPRESS CLOUDY    28  21  75 SW3       30.24S
TOLEDO METCALF CLOUDY    28  21  75 SW5       30.25S WCI  23
LIMA           CLOUDY    26  21  81 S7        30.24R WCI  18

$$
AND FOR LAKE MICHIGAN COASTAL AND OPEN LAKE BUOY OBSERVATIONS

STATION/POSITION TEMP    WIND        PRES    VSBY  WAVE
                 AIR SEA DIR/SP/G                  HT/PER
                 (F)     (DEG/KT/KT) (MB)    (MI)  (FT/S)
CALUMET HARBOR    32     220/  5/  7 1022.9R
MICHIGAN CITY     31     190/  9/ 11   N/A
BURNS HARBOR      32     210/  7/  8 1023.7F
SAINT JOSEPH      31     160/  3/  6 1024.0
SOUTH LAKE BUOY   35 47  230/ 12/ 16 1023.1          2/ 6

$$
&&




USA.gov is the U.S. government's official web portal to all federal, state and local government web resources and services.